Flag for Switzerland Weather past 2 weeks in Sarnen, Obwalden, Switzerland

Now
43 °F

Quite cool.


Feels Like: 43 °F
Forecast: 47 / 52 °F
Wind: 1 mph from Northwest

Location: Giswil

Current Time: Mar 29, 2015 at 5:16:40 AM

Latest Report: Mar 29, 2015 at 4:00 AM


Visibility: N/A

Pressure: 30.13 "Hg

Humidity: 96%

Dew point: 42 °F

Location of SarnenLocation

Historic Weather in Sarnen — Graph

°F

Sarnen temperature yesterday

Maximum temperature yesterday: 54 °F (at 3:00 PM)
Minimum temperature yesterday: 28 °F (at 7:00 AM)
Average temperature yesterday: 43 °F

Past Weeks' High & Low Weather Summary

 TemperatureHumidityPressure
High63 °F (Mar 18, 2:40 PM)99% (Mar 19, 7:00 AM)30.36 "Hg (Mar 19, 7:00 AM)
Low25 °F (Mar 15, 5:00 AM)23% (Mar 16, 12:00 AM)29.62 "Hg (Mar 25, 2:00 PM)
Average43 °F79%30.08 "Hg
* Reported Mar 14 3:00 AM — Mar 29 4:00 AM, Sarnen, Weather by CustomWeather, © 2015

Note: Actual official high and low records may vary slightly from our data, if they occured in-between our weather recording intervals... More about our weather records

Advertising

Sarnen weather history for previous 24 hours

 ConditionsComfort  
Time TempWeatherWind HumidityBarometerVisibility
4:00 AM
Sun, Mar 29
43 °FQuite cool.1 mph96%30.13 "HgN/A
3:00 AM45 °FCool.6 mph94%30.11 "HgN/A
1:00 AM45 °FCool.2 mph93%30.13 "HgN/A
12:00 AM44 °FQuite cool.1 mph97%30.14 "HgN/A
11:00 PM
Sat, Mar 28
46 °FCool.1 mph92%30.16 "HgN/A
9:00 PM47 °FCool.2 mph84%30.16 "HgN/A
8:00 PM49 °FCool.3 mph72%30.15 "HgN/A
7:00 PM51 °FCool.10 mph60%30.13 "HgN/A
6:00 PM51 °FCool.5 mph60%30.13 "HgN/A
5:00 PM53 °FCool.2 mph52%30.11 "HgN/A
4:00 PM54 °FCool.2 mph53%30.09 "HgN/A
3:00 PM54 °FCool.2 mph43%30.09 "HgN/A
2:00 PM54 °FCool.2 mph53%30.13 "HgN/A
1:00 PM54 °FCool.3 mph50%30.14 "HgN/A
12:00 PM51 °FCool.2 mph49%30.17 "HgN/A
11:00 AM48 °FCool.2 mph51%30.21 "HgN/A
10:00 AM45 °FCool.1 mph57%30.24 "HgN/A
9:00 AM41 °FQuite cool.No wind73%30.27 "HgN/A
8:00 AM32 °FChilly.1 mph95%30.33 "HgN/A
7:00 AM28 °FChilly.2 mph96%30.36 "HgN/A
6:00 AM29 °FChilly.3 mph95%30.35 "HgN/A
5:00 AM28 °FChilly.1 mph96%30.35 "HgN/A
Weather by CustomWeather, © 2015

See weather overviewHow to use our weather pages